Volver al catálogo

ONEWEB-0362

ActivoComunicacionesPO
NORAD 49288·PAYLOAD·🇬🇧 United Kingdom

Lanzado Oct 14, 2021 desde Vostochny Cosmodrome

Loading…

Próximos Pases (próximas 24 horas)

TLE

ActualizadoSource: CelesTrak SupGP

Época: Sep 14, 2026, 19:35 UTC

1 49288C 21090K   26257.81613843 -.00000587  00000+0 -14671-2 0  2578
2 49288  87.9103 287.1213 0001722  91.2587  20.2495 13.19723719    15

Sigue ONEWEB-0362 en tiempo real con AllMySat

Download on the App Store